Regional Weather Roundup
Issued by NWS

Home | Current Version | Previous Version | Text Only | Print | Product List | Glossary On
Versions: 1 2 3 4 5 6 7 8 9 10 11 12 13 14 15 16 17 18 19 20 21 22 23 24 25 26 27 28 29 30 31 32 33 34 35 36 37 38 39 40 41 42 43 44 45 46 47 48 49 50
000
ASUS43 KTOP 140108
RWRKS

WEATHER ROUNDUP FOR KANSAS
NATIONAL WEATHER SERVICE GOODLAND KS
700 PM CST SAT FEB 13 2016

NOTE:  "FAIR" INDICATES FEW OR NO CLOUDS BELOW 12,000 FEET WITH NO
SIGNIFICANT WEATHER AND/OR OBSTRUCTIONS TO VISIBILITY.

KSZ001>006-013>018-027>032-041>047-140200-
NORTHWEST KANSAS

CITY           SKY/WX    TMP DP  RH WIND       PRES   REMARKS
GOODLAND       CLOUDY    29  27  92 S8        29.97S FOG
HAYS           CLOUDY    32  12  43 E10       30.08F WCI  24
HILL CITY      CLOUDY    31  20  63 SE8       30.04F
RUSSELL        CLOUDY    31  16  54 E9        30.09S
$$

KSZ061>065-074>080-084>089-140200-
SOUTHWEST KANSAS

CITY           SKY/WX    TMP DP  RH WIND       PRES   REMARKS
DODGE CITY     CLOUDY    35  21  56 E10       30.01R WCI  27
ELKHART          N/A     63  24  22 SW8         N/A
GARDEN CITY    CLOUDY    40  25  55 E15       29.97R WCI  32
GREAT BEND     CLOUDY    34  16  47 E8        30.10R
LIBERAL        CLEAR     55  34  44 SE17      29.90S
PRATT          CLOUDY    34  19  53 E7        30.07F
$$

KSZ066>073-081>083-090>101-140200-
SOUTHEAST KANSAS

CITY           SKY/WX    TMP DP  RH WIND       PRES   REMARKS
CHANUTE        CLOUDY    31   7  36 E9        30.21S
COFFEYVILLE    CLOUDY    39  13  34 E7        30.18F
HUTCHINSON     CLOUDY    34  12  40 E7        30.13F
MEDICINE LODGE   N/A     41  26  55 E6        30.07F
NEWTON         CLOUDY    34   9  35 E7        30.16F
PARSONS        CLOUDY    37  10  32 VRB6      30.19F
WICHITA INTL   CLOUDY    40  11  30 E9        30.14S
WICHITA JABRA  CLOUDY    35  10  35 E9        30.15S
WICHITA MCCONL CLOUDY    38  12  34 E12       30.14F WCI  30
WINFIELD       CLOUDY    42  18  37 E6        30.15S
$$

KSZ007>012-019>026-033>040-048>060-102>105-140200-
NORTHEAST KANSAS

CITY           SKY/WX    TMP DP  RH WIND       PRES   REMARKS
CONCORDIA      CLOUDY    23   5  46 E13       30.17F WCI  11
EMPORIA        CLOUDY    25   7  46 E14       30.22S WCI  13
LAWRENCE       CLOUDY    23   3  42 SE10      30.29S WCI  12
MANHATTAN      PTCLDY    24   6  46 E12       30.25S WCI  13
MARYSVILLE     CLOUDY    23   5  46 SE9       30.24F
OLATHE IND     CLOUDY    21   3  45 E13       30.28S WCI   9
OLATHE EXE     CLOUDY    21   2  43 E14G22    30.27F WCI   8
SALINA         CLOUDY    33   6  32 E10       30.17F WCI  25
TOPEKA BILLARD CLOUDY    24   2  38 SE10      30.29R WCI  14
TOPEKA FORBES  CLOUDY    24   5  44 E8        30.27R
$$




USA.gov is the U.S. government's official web portal to all federal, state and local government web resources and services.